SCP
0 0 0 0 0 0 0 0 0 0 0 0 0 0 0 0 0 0 -0 0 0 0 0 0 0 0 0 0 0 0 0 0 0 0 0 0 0 0 0 0 0 0 0 0
0 0 0 0 0 0 0 0 0 0 0 0 0 0 -0 0 0 0 -0 0 0 0 0 0 0 0 0 0 0 0 0 0 0 0 0 0 0 0 0 0 -0 0 0 0
0 0 0 -0 0 0 0 0 0 0 0 0 0 0 0 0 0 -0 -0 0 0 0 0 0 0 0 0 0 0 0 0 0 0 0 0 0 0 0 0 -0 -0 -0 -0 0
0 0 0 -0 -0 0 0 0 0 0 0 0 0 0 0 0 -0 -0 -0 0 0 0 0 0 0 0 0 0 0 0 0 0 0 0 0 0 0 0 0 0 -0 -0 -0 -0
0 0 0 -0 -0 0 0 0 0 0 0 0 0 0 0 0 0 0 0 0 0 0 0 0 0 0 0 0 0 0 0 0 0 0 0 0 0 0 0 0 -0 -0 -0 -0
0 0 0 -0 -0 -0 0 0 0 0 0 0 0 0 0 0 0 0 0 0 0 0 0 0 0 0 0 0 0 0 0 0 0 0 0 0 0 0 0 0 0 0 -0 -0
0 0 0 0 0 0 0 0 0 0 0 0 0 0 0 0 0 0 0 0 0 0 0 0 0 0 0 0 0 0 0 0 0 0 0 0 0 0 0 0 0 0 0 -0
0 0 0 0 0 0 0 0 0 0 0 0 0 0 0 0 0 0 0 0 0 0 0 0 0 0 0 0 0 0 0 0 0 0 0 0 0 0 0 0 0 0 0 0
0 0 0 0 0 0 0 0 0 0 0 0 0 0 0 0 0 0 0 0 0 0 0 0 0 0 0 0 0 0 0 0 0 0 0 0 0 0 0 0 0 0 0 0
0 0 0 0 0 0 0 0 0 0 0 0 0 0 0 0 0 0 0 0 0 0 0 0 0 0 0 0 0 0 0 0 0 0 0 0 0 0 0 0 0 0 0 0
0 0 0 0 0 0 0 0 0 0 0 0 0 0 0 0 0 0 0 0 0 0 0 0 0 0 0 0 0 0 0 0 0 0 0 0 0 0 0 0 0 0 0 0
0 0 0 0 0 0 0 0 0 0 0 0 0 0 0 0 0 0 0 0 0 0 0 0 0 0 0 0 0 0 0 0 0 0 0 0 0 0 0 0 0 0 0 0
0 0 0 0 0 0 0 0 0 0 0 0 0 0 0 0 0 0 0 0 0 0 0 0 0 0 0 0 0 0 0 0 0 0 0 0 0 0 0 0 0 0 0 0
0 0 0 0 0 0 0 0 0 0 0 0 0 0 0 0 0 0 0 0 0 0 0 0 0 0 0 -0 -0 -0 0 0 0 0 0 0 0 0 0 0 0 0 0 0
0 0 0 0 0 0 0 0 0 0 0 0 0 0 0 0 0 0 0 0 0 0 0 0 0 0 -0 -0 -0 -0 0 0 0 0 0 0 0 0 0 0 0 0 0 0
0 0 0 0 0 0 0 0 0 0 0 0 0 0 0 0 0 0 0 0 0 0 0 0 0 0 0 -0 -0 -0 0 0 0 0 0 0 0 0 0 0 0 0 0 0
0 0 0 0 0 0 0 0 0 0 0 0 0 0 0 0 0 0 0 0 0 0 0 0 0 0 0 -0 -0 -0 0 0 0 0 0 0 0 0 0 0 0 -0 0 0
0 0 0 0 0 0 0 0 0 0 0 0 0 0 0 0 0 0 0 0 0 0 0 0 0 0 0 0 -0 -0 0 0 0 0 0 0 0 0 0 0 0 -0 0 0
0 0 0 0 0 0 0 0 0 0 0 0 0 0 0 0 0 0 0 0 0 0 0 0 0 0 0 0 0 0 0 0 0 0 0 0 0 0 0 0 0 0 0 0
0 0 0 0 0 0 0 0 0 0 0 0 0 0 0 0 0 0 0 0 0 0 0 0 0 0 0 0 0 0 0 0 0 0 0 0 0 0 0 0 0 0 0 0
0 0 0 0 0 0 0 0 0 0 0 0 0 0 0 0 0 0 0 0 0 0 0 0 0 0 0 0 0 0 0 0 0 0 0 0 0 0 0 0 0 0 0 0
0 0 0 0 0 0 0 0 0 0 0 0 0 0 0 0 0 0 0 0 0 0 0 0 0 0 0 0 0 0 0 0 0 0 0 0 0 0 0 0 0 0 0 0
0 0 0 0 0 0 0 0 0 -0 -0 0 0 0 0 0 0 0 0 0 0 0 0 0 0 0 0 0 0 0 0 0 0 0 0 0 0 0 0 0 0 0 0 0
0 0 0 0 0 0 0 -0 -0 -0 -0 -0 -0 -0 -0 0 0 0 0 0 0 0 0 0 0 0 0 0 0 0 0 0 0 0 0 0 0 0 0 0 0 0 0 0
0 0 0 -0 0 0 0 0 0 -0 -0 -0 -0 -0 -0 -0 0 0 0 0 0 0 0 0 0 0 0 0 0 0 0 0 0 0 0 0 0 0 0 0 0 0 0 0
0 0 0 0 0 0 0 0 0 0 -0 -0 -0 -0 -0 -0 0 0 0 0 0 0 0 0 0 0 0 0 0 0 0 0 0 0 0 0 0 0 0 0 0 0 0 0
Wind_Speed
3 4 0 3 3 3 2 3 4 5 2 2 6 9 10 6 4 4 4 3 3 3 2 0 1 1 2 2 1 0 1 1 1 1 1 0 1 1 1 1 1 0 1 1
4 1 3 2 2 1 1 2 4 5 3 3 5 9 8 4 5 5 5 4 3 2 1 1 1 1 1 1 1 1 0 1 2 1 1 1 1 1 1 1 1 1 1 1
2 3 2 1 1 1 2 3 4 5 5 3 3 7 4 2 1 1 2 2 2 2 2 1 0 0 1 1 1 1 1 1 1 0 0 1 1 1 1 1 1 1 1 1
1 2 1 1 2 1 4 3 3 3 2 4 1 6 6 3 2 2 3 2 2 2 2 2 1 1 1 1 1 1 1 0 0 0 1 2 2 2 3 2 2 2 2 2
3 2 1 1 2 1 3 3 2 2 2 3 3 4 8 2 4 5 4 3 2 2 2 2 2 2 1 1 0 1 1 1 1 1 1 2 2 2 2 2 2 2 2 2
3 2 1 2 2 1 1 3 2 2 2 4 5 5 8 4 6 4 3 3 3 2 2 2 2 1 0 0 0 1 1 1 1 1 2 2 3 2 2 2 3 3 2 2
4 4 2 1 1 2 2 3 4 5 3 7 3 5 10 5 4 4 4 4 4 3 2 1 1 1 1 1 1 1 1 2 2 2 2 3 4 4 4 4 4 3 2 2
1 5 3 1 1 2 2 4 5 4 5 6 4 8 8 4 2 2 3 3 2 2 2 3 3 3 2 2 2 1 2 3 2 2 3 3 4 4 3 4 4 4 3 4
3 5 3 2 2 3 2 3 3 3 2 4 7 7 7 3 1 1 1 1 2 3 3 3 3 3 3 3 3 3 2 3 3 3 3 3 3 4 4 4 4 3 3 3
3 4 5 3 2 1 2 3 3 3 3 6 7 6 6 4 4 3 3 3 4 3 3 3 3 3 3 3 3 2 2 3 3 3 3 3 3 4 4 3 4 3 3 3
2 3 4 2 3 5 2 2 3 3 3 4 5 8 5 5 5 5 5 4 4 4 4 4 3 3 2 2 1 2 2 2 3 3 3 3 3 3 3 3 4 4 3 3
2 3 4 7 5 2 4 5 6 5 5 5 5 10 3 2 3 3 4 4 3 3 3 3 3 2 2 2 2 2 3 3 3 3 3 3 3 3 3 4 4 3 3 3
4 3 2 5 3 1 1 2 3 3 3 5 6 11 2 2 3 3 4 4 4 3 3 2 2 2 3 3 3 3 3 4 4 3 3 3 3 3 3 4 3 3 3 3
3 4 7 10 7 4 5 5 5 5 5 7 12 14 11 8 7 6 5 5 4 4 3 3 3 3 3 4 4 4 4 4 3 3 3 3 4 4 4 3 3 2 2 2
3 5 7 9 8 6 8 9 9 11 11 12 13 14 16 11 9 7 6 5 5 5 5 5 4 4 4 4 4 4 4 3 3 3 4 4 4 3 3 2 2 2 2 2
3 4 3 7 7 8 11 12 12 13 12 15 16 18 13 9 7 7 6 6 6 7 6 6 5 5 5 5 5 4 4 4 3 4 4 3 3 2 2 2 2 1 1 1
4 4 3 7 5 5 11 12 13 10 10 10 15 17 8 7 8 7 7 7 8 7 7 7 6 6 6 6 5 5 5 3 3 3 3 3 2 2 2 2 1 1 1 1
6 5 3 3 2 10 11 4 8 10 11 11 11 10 8 9 8 5 5 6 8 7 7 7 6 6 6 5 4 4 3 2 3 3 3 3 2 2 2 1 2 1 1 2
7 7 4 3 6 13 9 4 5 7 10 7 10 11 9 6 5 6 5 5 7 7 7 6 5 5 4 4 3 3 3 2 3 3 3 3 2 2 2 2 2 1 1 1
2 4 4 4 6 11 8 3 2 1 8 5 6 8 7 3 5 8 5 5 6 6 5 4 3 3 3 3 3 3 3 3 4 4 4 3 2 3 3 3 2 1 1 2
3 3 7 8 10 12 7 2 2 4 8 3 3 5 5 5 7 7 6 6 5 5 4 3 3 3 3 3 2 3 4 4 5 3 3 3 2 3 3 2 1 1 1 1
9 7 8 6 8 13 3 4 7 8 4 3 3 4 5 7 7 7 6 6 6 5 4 3 3 4 3 2 2 3 4 5 4 3 3 3 2 2 2 1 1 1 2 1
10 11 8 11 11 5 3 6 5 3 4 4 4 5 5 6 7 7 6 6 6 5 4 4 3 4 3 2 2 4 5 4 3 3 3 3 2 2 1 2 2 1 2 2
6 4 5 7 9 6 6 5 5 4 5 6 6 6 5 6 7 7 7 7 6 5 5 4 3 4 4 4 3 4 4 3 3 3 3 2 2 2 1 1 2 2 2 2
7 5 6 9 7 5 7 7 6 6 5 5 6 5 6 6 7 7 7 7 6 6 5 4 4 5 5 4 4 3 3 2 3 3 3 2 2 2 2 1 2 2 3 3
7 8 8 10 7 7 7 5 5 5 6 6 6 7 6 6 7 7 7 6 6 5 5 5 5 5 5 5 5 4 3 2 3 3 3 2 2 2 2 1 1 2 2 3
Wind_Direction
29 65 103 244 229 224 212 227 259 266 282 250 246 263 273 263 227 229 234 225 217 228 252 65 67 49 42 32 30 60 147 155 130 123 144 210 232 269 281 269 289 301 328 293
38 322 262 272 280 278 250 257 272 289 309 280 273 275 269 251 221 212 210 217 219 231 357 12 34 33 39 30 19 15 356 194 188 195 201 219 232 240 253 268 266 275 283 297
173 258 284 35 1 299 277 236 253 275 315 312 316 297 263 267 214 193 192 206 214 197 208 231 295 348 13 4 327 326 311 278 243 243 80 43 34 357 295 285 269 277 256 234
282 297 343 347 292 233 257 264 261 268 305 287 253 281 267 246 264 245 242 239 233 230 203 202 210 269 321 309 325 331 320 315 299 200 193 189 206 227 245 251 252 260 244 232
285 296 342 276 269 226 245 280 270 254 229 290 256 237 276 262 253 249 239 240 244 228 195 194 204 215 240 259 313 317 340 321 281 236 231 223 236 243 267 267 240 238 239 232
282 291 240 247 285 253 268 4 10 39 75 272 236 209 271 231 223 239 236 235 236 223 199 203 208 194 223 296 336 323 326 306 288 253 249 242 244 250 261 266 248 242 243 236
323 310 316 331 26 352 45 69 19 355 339 255 251 223 250 238 223 211 218 227 227 219 208 221 229 217 233 243 258 271 283 289 289 273 261 256 249 238 236 243 239 246 245 244
283 286 269 317 191 208 220 157 166 215 245 277 279 238 247 248 238 218 210 213 221 227 223 225 223 215 223 229 233 241 260 278 280 274 271 268 259 243 240 244 244 238 242 241
201 261 298 282 277 174 177 204 196 172 278 280 265 275 290 243 275 271 244 249 251 239 234 233 229 220 224 225 227 234 255 279 280 277 285 280 273 258 247 247 241 241 252 253
168 260 284 303 336 283 179 168 122 148 204 261 276 260 246 240 247 253 259 257 260 262 262 254 240 232 230 226 231 237 245 260 274 277 275 281 278 270 255 243 239 241 245 248
161 207 290 318 217 219 190 186 174 175 193 208 267 265 239 232 222 225 241 252 253 257 263 260 259 249 233 235 231 239 250 273 283 282 279 282 279 280 265 246 243 243 245 243
179 162 255 257 253 247 197 195 167 180 235 224 250 269 277 238 249 244 257 271 279 274 274 271 273 280 273 251 240 241 250 258 265 271 276 278 282 282 268 255 248 242 243 245
162 147 320 324 314 334 239 220 195 185 184 213 227 263 303 326 312 290 283 290 291 289 285 292 294 280 271 265 256 254 259 263 267 267 270 276 278 276 267 258 251 243 242 244
162 184 201 224 240 213 240 242 215 185 214 236 236 257 281 291 289 293 290 281 277 271 273 273 272 267 270 269 263 259 262 264 270 267 261 262 265 266 266 263 251 240 239 238
166 222 234 253 265 254 242 246 230 220 221 229 250 255 267 270 269 272 276 278 284 287 284 275 267 266 269 275 274 268 267 269 267 263 261 255 263 266 269 261 251 241 234 235
182 221 249 270 265 265 264 255 244 239 236 241 257 265 266 274 276 278 275 276 277 280 279 281 279 275 273 275 277 279 273 272 266 261 263 263 267 274 271 252 239 230 231 229
190 181 218 264 293 313 266 236 224 224 223 219 239 253 271 277 267 263 266 272 273 274 277 278 273 263 265 265 266 264 268 273 267 266 274 273 264 271 275 256 231 221 227 225
183 179 201 257 333 249 246 217 211 224 240 231 241 260 265 261 266 260 257 259 271 278 279 277 275 274 270 269 268 269 274 263 258 261 271 275 270 274 278 255 238 235 229 220
193 180 192 201 244 268 278 243 198 218 256 240 246 265 278 280 292 275 265 258 262 267 272 274 275 277 277 272 272 271 268 260 258 263 270 270 258 259 258 247 243 237 219 231
168 174 188 203 232 251 254 239 210 165 268 256 240 262 282 294 276 276 280 271 273 275 278 283 290 297 292 288 281 265 261 256 258 263 268 267 252 244 244 239 238 229 217 224
170 196 210 223 241 258 254 245 117 202 254 274 254 261 261 243 249 279 295 291 282 281 282 284 280 271 271 279 276 265 263 263 270 272 271 270 260 249 241 235 226 200 204 207
186 192 205 198 228 252 217 148 193 233 274 275 273 266 260 264 276 290 297 294 290 290 288 285 279 283 285 281 269 266 267 276 281 272 261 264 265 254 235 213 222 197 178 184
206 200 197 203 225 249 193 205 228 246 257 267 273 274 269 273 276 285 291 288 289 285 284 286 275 281 289 282 265 266 279 287 280 267 259 263 269 258 235 203 200 193 184 186
237 214 218 246 254 250 245 247 259 254 257 267 272 273 269 267 274 280 283 287 288 285 283 287 278 272 279 283 277 272 284 287 272 260 258 255 245 248 241 219 204 196 197 194
221 198 227 252 264 271 252 245 253 261 261 268 273 270 268 265 270 270 276 280 281 283 286 280 266 264 271 279 278 279 280 275 265 259 256 253 237 225 225 227 223 216 219 213
208 198 208 238 232 228 249 247 253 259 266 268 271 277 277 265 265 270 272 273 275 277 282 280 273 271 273 274 271 271 270 255 244 252 249 240 228 218 211 211 281 276 262 258